Regional Weather Roundup
Issued by NWS Goodland, KS

Home | Current Version | Previous Version | Text Only | Print | Product List | Glossary On
Versions: 1 2 3 4 5 6 7 8 9 10 11 12 13 14 15 16 17 18 19 20 21 22 23 24 25 26 27 28 29 30 31 32 33 34 35 36 37 38 39 40 41 42 43 44 45 46 47 48 49 50
000
ASUS43 KGLD 222208
RWRGLD

GOODLAND FORECAST AREA HOURLY WEATHER ROUNDUP
NATIONAL WEATHER SERVICE GOODLAND KS
400 PM MDT FRI SEP 22 2017

...OFFICIAL OBSERVATIONS...

CITY           SKY/WX    TMP DP  RH WIND       PRES   REMARKS
GOODLAND KS    MOSUNNY   92  41  17 S30G39    29.75S
HILL CITY KS   CLOUDY    96  53  23 S24G36    29.75S
IMPERIAL NEB   CLOUDY    92  30  11 SW21G31   29.70S
MCCOOK NEB     MOSUNNY   94  51  23 S28G39    29.71R
AKRON CO       CLOUDY    84  33  16 S18       29.76F
BURLINGTON CO  CLOUDY    89  36  15 SW23G36   29.79F
LIMON CO       NOT AVBL
$$

...UNOFFICIAL OBSERVATIONS...

CITY           SKY/WX    TMP DP  RH WIND       PRES   REMARKS
LENORA KS        N/A     95  32  11 MISG        N/A
NORTON KS      MOSUNNY   95  41  15 S25G35    29.73S
SHARON SPRINGS   N/A     90  56  31 SE20G31     N/A
KIT CARSON CO    N/A     88  39  17 MISG        N/A
YUMA CO        FAIR      84  36  17 S17G25    29.75S
$$



USA.gov is the U.S. government's official web portal to all federal, state and local government web resources and services.